TimeCDT,TemperatureF,Dew PointF,Humidity,Sea Level PressureIn,VisibilityMPH,Wind Direction,Wind SpeedMPH,Gust SpeedMPH,PrecipitationIn,Events,Conditions,WindDirDegrees,DateUTC
12:52 AM,21.0,18.0,88,30.31,10.0,North,4.6,-,N/A,,Clear,360,2013-05-01 05:52:00
1:52 AM,25.0,19.9,81,30.32,10.0,NW,6.9,-,N/A,,Clear,320,2013-05-01 06:52:00
2:52 AM,21.9,18.0,85,30.34,10.0,WNW,5.8,-,N/A,,Clear,300,2013-05-01 07:52:00
3:52 AM,26.1,21.0,81,30.35,10.0,WNW,6.9,-,N/A,,Overcast,290,2013-05-01 08:52:00
4:52 AM,28.0,21.0,75,30.38,10.0,West,5.8,-,N/A,,Overcast,270,2013-05-01 09:52:00
5:52 AM,27.0,23.0,85,30.40,10.0,West,6.9,-,N/A,,Overcast,280,2013-05-01 10:52:00
6:52 AM,26.1,21.9,84,30.43,10.0,WNW,9.2,-,N/A,,Partly Cloudy,300,2013-05-01 11:52:00
7:52 AM,28.9,24.1,82,30.46,10.0,WNW,10.4,-,N/A,,Clear,290,2013-05-01 12:52:00
8:52 AM,32.0,24.1,73,30.50,10.0,NW,13.8,-,N/A,,Clear,310,2013-05-01 13:52:00
9:52 AM,35.1,25.0,67,30.53,10.0,WNW,12.7,-,N/A,,Clear,300,2013-05-01 14:52:00
10:52 AM,37.0,23.0,57,30.54,10.0,NW,12.7,-,N/A,,Partly Cloudy,310,2013-05-01 15:52:00
11:52 AM,39.0,23.0,53,30.56,10.0,WNW,15.0,21.9,N/A,,Partly Cloudy,300,2013-05-01 16:52:00
12:52 PM,41.0,21.9,47,30.56,10.0,North,9.2,21.9,N/A,,Partly Cloudy,350,2013-05-01 17:52:00
1:52 PM,44.1,19.9,38,30.55,10.0,WNW,13.8,19.6,N/A,,Clear,290,2013-05-01 18:52:00
2:52 PM,45.0,14.0,29,30.56,10.0,WNW,11.5,21.9,N/A,,Clear,300,2013-05-01 19:52:00
3:52 PM,46.9,14.0,27,30.57,10.0,NW,15.0,26.5,N/A,,Clear,310,2013-05-01 20:52:00
4:52 PM,46.9,12.9,25,30.57,10.0,NNW,11.5,26.5,N/A,,Clear,340,2013-05-01 21:52:00
5:52 PM,46.9,12.0,24,30.59,10.0,NW,20.7,28.8,N/A,,Clear,310,2013-05-01 22:52:00
6:52 PM,46.0,12.9,26,30.61,10.0,NW,16.1,-,N/A,,Partly Cloudy,320,2013-05-01 23:52:00
7:52 PM,44.1,15.1,31,30.61,10.0,NNW,12.7,-,N/A,,Clear,330,2013-05-02 00:52:00
8:52 PM,39.9,15.1,36,30.63,10.0,NNW,9.2,-,N/A,,Clear,340,2013-05-02 01:52:00
9:52 PM,28.9,16.0,58,30.66,10.0,NNW,4.6,-,N/A,,Clear,340,2013-05-02 02:52:00
10:52 PM,34.0,19.9,56,30.67,10.0,NE,8.1,-,N/A,,Clear,40,2013-05-02 03:52:00
11:52 PM,30.9,21.0,67,30.69,10.0,Calm,Calm,-,N/A,,Clear,0,2013-05-02 04:52:00